Location: Madrid
(40.4167°N, 3.7036°W)
Time: 12:07:55
(UTC+00:00)

ISS - Pass Details

Date: 02 May 2025
Orbit: 416 x 419 km, 51.6° (Epoch: 14 May)

Event Time Altitude Azimuth Distance (km) Brightness Sun altitude
Rises 04:08:02 0° 310° (NW) 2,361 -0.1 -11.8°
Reaches altitude 10° 04:10:51 10° 336° (NNW) 1,496 -0.9 -11.4°
Maximum altitude 04:12:50 15° 12° (NNE) 1,244 -0.7 -11.0°
Drops below altitude 10° 04:14:48 10° 49° (NE) 1,496 0.5 -10.7°
Sets 04:17:37 0° 74° (ENE) 2,359 1.8 -10.3°
